Location: Lansingburgh
(42.7845°N, 73.6696°W)
Time: 03:50:45
(UTC+00:00)

COSMO-SKYMED 1 - Pass Details

Date: 24 January 2020
Orbit: 621 x 623 km, 97.9° (Epoch: 16 February)

Event Time Altitude Azimuth Distance (km) Brightness Sun altitude
Rises 23:01:09 0° 13° (NNE) 2,911 5.7 -11.9°
Reaches altitude 10° 23:03:21 10° 14° (NNE) 2,000 4.9 -12.3°
Maximum altitude 23:07:43 86° 104° (ESE) 630 2.5 -13.0°
Drops below altitude 10° 23:12:02 10° 192° (SSW) 1,984 5.5 -13.8°
Sets 23:14:12 0° 193° (SSW) 2,885 6.4 -14.2°
